sat.trackr.live / text

‹ back to catalog

STARLINK-35618

NORAD 66423 · 2025-259B

PAYLOAD ACTIVE UNKNOWN

§ Identity

Operator
Country
US
Launch date
2025-11-11
Launch site
AFETR
Launch vehicle
Mass (kg)
RCS (m²)

Purposes: comms

External: N2YO · Heavens-Above · Gunter

§ Orbital elements

Epoch: 2026-05-25T03:38:45.976128Z

Period
94.26 min
Inclination
43.0006°
Eccentricity
0.0001106
Mean motion
15.27619472 rev/d
Perigee alt
482.2 km
Apogee alt
483.7 km
Semi-major
6,861.1 km
B*
8.0412e-4
RAAN
202.6738°
Arg perigee
299.5921°
Mean anomaly
60.4820°
Rev number
3,118

§ Raw data

STARLINK-356181 66423U 25259B   26145.15192102  .00021958  00000+0  80412-3 0  99952 66423  43.0006 202.6738 0001106 299.5921  60.4820 15.27619472 31186

JSON: /api/v1/satellites/66423 · /tle

For live sub-satellite position, see the globe view (requires WebGL).

§ Visibility from observer

Set your observer location to see the next 7 days of passes ≥ 10°. The values pass through the URL so the page stays shareable.

No JS? Fill the form by hand. The geolocation button needs JavaScript.